TimeCDT,TemperatureF,Dew PointF,Humidity,Sea Level PressureIn,VisibilityMPH,Wind Direction,Wind SpeedMPH,Gust SpeedMPH,PrecipitationIn,Events,Conditions,WindDirDegrees,DateUTC
12:15 AM,57.2,55.4,94,29.76,3.0,NNE,6.9,-,N/A,,Clear,20,2012-10-24 05:15:00
12:35 AM,57.4,55.6,94,29.76,3.0,NNE,4.6,-,N/A,,Clear,30,2012-10-24 05:35:00
12:55 AM,57.4,55.8,94,29.74,3.0,NE,8.1,-,N/A,,Clear,50,2012-10-24 05:55:00
1:15 AM,57.6,55.9,94,29.75,3.0,NNE,6.9,-,N/A,,Clear,30,2012-10-24 06:15:00
1:35 AM,56.1,54.5,94,29.76,1.8,Calm,Calm,-,N/A,,Mist,0,2012-10-24 06:35:00
1:55 AM,56.3,54.7,94,29.78,1.2,Calm,Calm,-,N/A,,Mist,0,2012-10-24 06:55:00
2:15 AM,54.1,52.7,95,29.78,0.2,Calm,Calm,-,N/A,Fog,Fog,0,2012-10-24 07:15:00
2:35 AM,53.2,51.8,95,29.79,0.2,Calm,Calm,-,N/A,Fog,Fog,0,2012-10-24 07:35:00
2:55 AM,53.4,52.2,95,29.78,0.2,NNW,5.8,-,N/A,,Light Drizzle,340,2012-10-24 07:55:00
3:15 AM,54.7,53.4,96,29.78,0.2,North,9.2,-,N/A,Fog,Fog,350,2012-10-24 08:15:00
3:35 AM,55.2,53.8,95,29.77,0.2,North,11.5,-,N/A,Rain,Heavy Rain,350,2012-10-24 08:35:00
3:55 AM,56.3,55.0,96,29.77,0.2,North,15.0,-,N/A,,Drizzle,360,2012-10-24 08:55:00
4:15 AM,55.8,54.5,96,29.75,0.2,North,16.1,-,N/A,,Drizzle,10,2012-10-24 09:15:00
4:35 AM,55.9,54.7,96,29.76,0.2,North,15.0,-,N/A,,Light Drizzle,10,2012-10-24 09:35:00
4:55 AM,56.3,54.9,95,29.76,1.0,NNE,12.7,-,N/A,,Overcast,20,2012-10-24 09:55:00
5:15 AM,55.8,54.5,96,29.75,1.8,NNE,13.8,-,N/A,,Overcast,20,2012-10-24 10:15:00
5:35 AM,55.8,54.5,96,29.76,0.5,NNE,10.4,-,N/A,Fog,Fog,20,2012-10-24 10:35:00
5:55 AM,55.9,54.9,96,29.75,0.2,NNE,9.2,-,N/A,Fog,Fog,30,2012-10-24 10:55:00
6:15 AM,56.3,55.0,96,29.75,0.5,NNE,13.8,-,N/A,,Drizzle,30,2012-10-24 11:15:00
6:35 AM,56.3,55.2,96,29.75,0.2,NNE,12.7,-,N/A,,Heavy Drizzle,30,2012-10-24 11:35:00
6:55 AM,56.3,55.4,97,29.76,0.2,NE,11.5,-,N/A,,Heavy Drizzle,40,2012-10-24 11:55:00
7:15 AM,56.5,55.4,96,29.75,0.2,NNE,9.2,-,N/A,Rain,Rain,30,2012-10-24 12:15:00
7:35 AM,56.8,55.8,96,29.75,0.2,NE,9.2,-,N/A,,Heavy Drizzle,40,2012-10-24 12:35:00
7:55 AM,57.0,55.8,96,29.74,0.2,NNE,13.8,-,N/A,,Heavy Drizzle,20,2012-10-24 12:55:00
8:15 AM,57.2,55.9,96,29.74,0.2,NE,11.5,-,N/A,,Heavy Drizzle,40,2012-10-24 13:15:00
8:35 AM,57.2,55.9,96,29.74,0.2,NNE,13.8,-,N/A,Rain,Heavy Rain,20,2012-10-24 13:35:00
8:55 AM,57.2,55.9,96,29.74,0.2,NNE,13.8,-,N/A,,Drizzle,20,2012-10-24 13:55:00
9:15 AM,57.2,56.1,96,29.75,0.2,North,12.7,-,N/A,,Drizzle,360,2012-10-24 14:15:00
9:35 AM,57.0,55.9,96,29.76,0.2,North,10.4,-,N/A,Fog,Fog,350,2012-10-24 14:35:00
9:55 AM,56.3,55.2,96,29.76,0.8,North,12.7,-,N/A,Rain,Rain,360,2012-10-24 14:55:00
10:15 AM,55.8,54.7,96,29.76,1.0,North,10.4,-,N/A,,Light Drizzle,360,2012-10-24 15:15:00
10:35 AM,55.8,54.7,96,29.76,1.0,North,13.8,-,N/A,,Light Drizzle,360,2012-10-24 15:35:00
10:55 AM,56.3,55.0,96,29.76,1.0,North,12.7,16.1,N/A,,Light Drizzle,360,2012-10-24 15:55:00
11:15 AM,56.7,55.6,96,29.76,0.8,North,12.7,-,N/A,,Overcast,360,2012-10-24 16:15:00
11:35 AM,57.6,56.5,96,29.75,0.8,North,11.5,-,N/A,,Overcast,10,2012-10-24 16:35:00
11:55 AM,57.7,56.7,96,29.76,0.8,North,8.1,-,N/A,,Overcast,360,2012-10-24 16:55:00
12:15 PM,57.7,56.7,96,29.75,0.5,North,12.7,-,N/A,Fog,Fog,360,2012-10-24 17:15:00
12:35 PM,57.7,56.7,96,29.75,0.5,NNW,10.4,-,N/A,Fog,Fog,340,2012-10-24 17:35:00
12:55 PM,57.2,56.3,97,29.74,0.5,NNW,11.5,-,N/A,Fog,Fog,340,2012-10-24 17:55:00
1:15 PM,57.2,56.3,97,29.75,0.5,NNW,11.5,-,N/A,Fog,Fog,340,2012-10-24 18:15:00
1:35 PM,56.7,55.6,96,29.74,0.8,NNW,15.0,-,N/A,,Overcast,340,2012-10-24 18:35:00
1:55 PM,55.8,54.7,96,29.74,1.0,North,17.3,-,N/A,,Overcast,350,2012-10-24 18:55:00
2:15 PM,55.0,54.0,96,29.74,1.2,North,10.4,-,N/A,,Overcast,350,2012-10-24 19:15:00
2:35 PM,54.9,53.8,96,29.73,1.2,North,17.3,-,N/A,,Overcast,350,2012-10-24 19:35:00
2:55 PM,53.8,52.7,96,29.73,1.2,North,16.1,20.7,N/A,,Overcast,350,2012-10-24 19:55:00
3:15 PM,53.2,52.2,96,29.73,1.2,North,16.1,-,N/A,,Overcast,350,2012-10-24 20:15:00
3:35 PM,53.2,52.2,96,29.73,1.0,North,17.3,21.9,N/A,,Overcast,350,2012-10-24 20:35:00
4:15 PM,52.3,51.3,96,29.74,1.0,North,16.1,20.7,N/A,,Overcast,350,2012-10-24 21:15:00
4:35 PM,52.2,51.1,96,29.74,1.0,North,15.0,21.9,N/A,,Overcast,350,2012-10-24 21:35:00
4:55 PM,51.8,50.5,95,29.74,1.2,North,18.4,-,N/A,,Overcast,350,2012-10-24 21:55:00
5:15 PM,51.8,50.5,95,29.74,1.5,North,16.1,-,N/A,,Overcast,350,2012-10-24 22:15:00
5:35 PM,51.4,50.4,96,29.73,1.5,North,18.4,25.3,N/A,,Overcast,360,2012-10-24 22:35:00
5:55 PM,51.1,50.0,96,29.74,2.5,North,18.4,24.2,N/A,,Overcast,360,2012-10-24 22:55:00
6:15 PM,51.3,50.2,96,29.74,3.0,North,13.8,21.9,N/A,,Overcast,10,2012-10-24 23:15:00
6:35 PM,51.1,50.0,96,29.74,5.0,North,18.4,21.9,N/A,,Overcast,360,2012-10-24 23:35:00
6:55 PM,50.9,49.6,95,29.74,5.0,North,17.3,24.2,N/A,,Overcast,10,2012-10-24 23:55:00
7:15 PM,50.5,49.5,96,29.74,5.0,North,13.8,-,N/A,,Overcast,360,2012-10-25 00:15:00
7:55 PM,50.0,48.7,95,29.74,3.0,North,15.0,-,N/A,,Overcast,350,2012-10-25 00:55:00
8:15 PM,49.5,48.4,96,29.73,4.0,North,16.1,-,N/A,,Overcast,350,2012-10-25 01:15:00
8:35 PM,49.3,48.2,96,29.74,4.0,North,11.5,-,N/A,,Overcast,360,2012-10-25 01:35:00
8:55 PM,49.1,47.8,95,29.75,3.0,North,15.0,-,N/A,,Overcast,350,2012-10-25 01:55:00
9:15 PM,48.6,47.5,96,29.74,4.0,North,15.0,18.4,N/A,,Overcast,350,2012-10-25 02:15:00
9:35 PM,48.2,46.9,95,29.76,3.0,NNW,17.3,-,N/A,,Overcast,330,2012-10-25 02:35:00
9:55 PM,47.5,46.4,96,29.77,3.0,NNW,19.6,27.6,N/A,,Overcast,340,2012-10-25 02:55:00
10:15 PM,47.1,45.9,95,29.75,3.0,North,18.4,24.2,N/A,,Overcast,350,2012-10-25 03:15:00
10:35 PM,46.8,45.7,96,29.77,2.5,North,15.0,25.3,N/A,Rain,Rain,350,2012-10-25 03:35:00
10:55 PM,46.4,45.1,95,29.77,3.0,North,23.0,27.6,0.03,Rain,Light Rain,350,2012-10-25 03:55:00
11:15 PM,45.5,44.6,97,29.74,3.0,North,19.6,25.3,N/A,,Overcast,360,2012-10-25 04:15:00
11:35 PM,45.5,44.4,96,29.74,7.0,North,16.1,21.9,N/A,Thunderstorm,Overcast,360,2012-10-25 04:35:00
11:55 PM,45.1,43.9,95,29.72,10.0,North,13.8,25.3,N/A,Thunderstorm,Overcast,360,2012-10-25 04:55:00